Temperature
22 20 20 20 20 21 22 21 20 20 20 19 18 17 17 17 17 17 17 17 17 17 18 18 18 18 18 18 18 18 18 17 17 17 16 16 16 15 15 15 15 14 14 14
21 20 22 22 22 21 21 21 20 20 20 19 17 17 17 17 17 17 17 17 17 17 17 18 18 18 18 18 18 18 17 17 17 16 16 16 15 15 14 14 14 14 13 13
22 22 23 23 22 22 21 21 20 19 19 18 18 18 17 17 17 17 17 17 18 18 18 18 18 18 18 18 18 18 17 17 16 16 15 15 15 14 14 13 13 13 13 12
22 23 23 23 22 22 21 21 21 20 18 17 17 17 17 16 16 17 17 18 18 18 19 19 19 18 18 18 18 17 17 16 16 15 15 14 14 14 13 13 12 12 12 11
22 23 23 23 23 22 21 20 19 18 17 17 16 17 16 16 16 17 17 18 19 19 19 19 19 19 18 18 17 17 17 16 16 15 15 14 14 13 13 12 12 11 11 11
22 23 23 23 22 22 20 19 18 16 16 17 17 16 17 16 16 17 18 19 19 19 19 19 19 19 18 18 17 17 17 16 15 15 14 14 13 12 12 11 11 11 11 10
22 23 23 22 21 21 20 18 17 18 16 17 16 16 16 17 17 17 18 19 20 20 19 19 19 19 18 18 17 17 16 16 15 14 14 13 12 12 11 11 10 10 10 10
22 22 23 23 22 20 20 19 18 19 18 17 16 16 16 18 18 18 19 19 20 20 20 20 19 19 18 18 17 17 16 15 14 14 13 12 12 11 11 10 10 10 10 10
21 22 23 24 23 21 20 18 18 16 17 17 17 16 17 18 18 18 18 19 19 20 20 20 19 19 18 18 17 16 15 15 14 13 12 12 11 11 11 10 10 10 9 9
21 22 23 23 23 22 20 17 15 16 17 18 18 17 17 19 18 18 17 18 20 20 20 20 19 18 18 17 16 15 15 14 13 12 12 11 11 11 10 10 10 9 9 9
21 20 21 22 23 23 21 19 15 14 16 17 18 17 17 17 18 17 18 19 20 20 20 19 19 18 17 16 16 15 14 13 13 12 11 11 11 10 10 10 9 9 9 9
19 18 19 21 21 22 22 20 17 18 17 15 16 17 18 17 17 18 19 20 20 20 19 19 18 18 17 16 15 14 13 13 12 12 11 11 10 10 10 10 9 9 9 9
18 18 19 20 19 21 22 21 17 15 14 14 16 18 18 17 17 18 19 20 20 20 19 19 18 17 16 16 15 14 13 12 12 11 11 10 10 10 10 10 9 9 9 9
18 18 19 20 20 21 21 21 18 17 16 16 16 18 18 18 17 17 19 20 20 19 19 18 18 17 16 15 14 13 13 12 11 11 10 10 10 10 9 9 9 9 9 9
19 20 20 19 20 20 21 21 20 18 18 17 18 17 18 17 16 18 19 19 19 19 19 18 17 17 16 15 14 13 12 12 11 11 10 10 10 9 9 9 9 9 9 9
18 20 20 21 21 21 21 21 21 20 19 18 19 18 17 17 18 18 18 19 19 19 19 18 17 16 15 14 13 13 12 11 11 10 10 10 10 9 9 9 9 9 9 8
16 18 19 19 20 21 21 22 22 22 20 19 19 19 18 17 16 18 19 19 20 19 19 18 17 16 15 14 13 12 12 11 11 10 10 10 9 9 9 9 9 9 8 8
16 16 16 17 21 22 20 20 21 21 21 19 19 18 16 17 20 20 21 20 20 19 19 18 17 16 15 14 13 12 12 11 11 10 10 10 9 9 9 9 9 8 8 8
15 15 15 16 19 20 20 21 20 21 21 19 18 18 17 17 18 19 21 20 20 19 18 17 16 15 14 14 13 12 12 11 11 10 10 9 9 9 9 9 9 8 8 8
15 15 15 16 19 19 20 21 21 21 20 19 18 16 16 16 16 17 21 20 19 19 18 17 16 15 14 14 13 12 12 11 11 10 10 9 9 9 9 8 8 8 8 8
18 16 16 16 18 18 19 20 21 21 19 22 21 20 18 17 19 21 21 20 20 19 18 17 16 15 14 13 13 12 12 11 11 10 10 10 9 9 9 9 8 8 8 8
18 17 16 15 17 19 20 20 19 20 23 23 23 22 21 22 22 21 21 20 19 19 18 17 16 15 14 13 13 12 12 11 11 10 10 10 9 9 9 9 8 8 8 8
16 16 15 16 18 20 21 21 23 23 23 24 24 24 23 22 22 21 21 20 19 19 18 17 16 15 14 14 13 13 12 11 11 10 10 10 9 9 9 9 8 8 8 8
17 15 15 16 17 20 22 23 24 24 24 24 24 24 23 22 22 21 21 20 20 19 18 17 16 15 15 14 13 13 12 11 11 10 10 10 9 9 9 9 9 8 8 8
17 17 16 16 17 19 23 23 24 24 24 24 24 23 23 22 22 22 21 21 20 19 18 17 16 16 15 14 13 13 12 11 11 10 10 10 9 9 9 9 9 9 8 8
14 16 16 17 19 17 20 22 22 22 23 23 23 23 22 22 22 21 21 21 20 19 18 17 17 16 15 14 14 13 12 11 11 11 10 10 10 9 9 9 9 9 9 8
Wind_Speed
3 3 5 8 9 7 3 3 2 1 1 3 3 4 5 4 4 5 6 6 6 6 5 5 6 5 5 4 5 5 4 3 3 2 2 1 0 1 2 2 4 4 4 5
3 5 9 4 3 3 3 3 2 1 2 3 2 1 1 2 3 4 6 6 7 6 5 6 7 6 6 6 6 5 4 3 2 1 1 1 0 1 2 3 4 5 6 6
6 7 2 2 2 2 2 3 4 4 3 4 1 1 2 1 1 2 5 6 6 8 9 8 8 8 7 7 7 6 6 4 3 2 2 2 2 2 3 3 3 5 7 7
5 4 2 2 3 4 2 2 5 5 5 2 3 3 3 2 2 4 6 7 8 8 8 8 9 9 9 8 6 5 5 4 4 3 2 2 2 2 3 3 3 5 6 6
5 2 2 3 4 5 3 5 6 5 5 3 5 1 6 1 3 6 7 7 8 9 9 9 9 9 7 6 5 5 5 4 3 3 3 3 3 3 3 3 5 5 5 6
5 3 2 2 3 6 7 7 7 6 5 3 3 1 6 4 6 5 5 7 8 7 7 7 7 6 5 5 5 5 5 4 3 3 3 4 5 5 5 5 5 5 4 5
7 5 1 3 5 3 5 6 5 5 5 4 2 2 8 7 7 7 7 8 7 6 6 6 6 6 6 5 5 4 4 4 3 3 3 4 5 5 6 7 6 6 5 4
3 6 3 3 5 6 4 7 6 4 4 4 2 4 8 7 6 6 7 6 5 5 5 6 7 6 6 6 5 4 4 4 3 4 4 4 5 4 5 7 6 6 6 6
3 5 4 2 3 8 6 3 6 6 3 1 5 7 8 4 5 4 5 5 6 5 5 5 5 5 5 5 4 4 4 4 4 5 5 6 6 6 7 7 6 6 7 7
6 4 5 3 4 4 5 9 6 6 4 1 5 5 5 7 8 6 5 6 6 4 5 5 4 4 3 3 2 2 3 4 5 5 5 5 6 6 6 6 7 7 8 7
4 3 6 4 1 1 3 5 6 5 5 6 3 7 7 9 9 9 9 8 7 7 7 5 4 3 2 1 2 3 4 4 5 6 5 6 6 6 6 6 8 8 8 8
4 4 2 6 4 1 2 5 7 5 4 5 4 8 6 8 8 8 8 7 6 7 5 3 3 2 2 3 3 4 5 6 6 6 5 6 6 6 7 8 8 8 8 8
6 5 3 8 8 5 2 2 5 6 6 6 5 8 4 2 4 6 7 7 6 6 5 3 2 3 4 4 5 6 6 7 6 5 6 6 7 7 8 8 9 8 8 9
7 5 5 5 7 4 5 2 6 6 5 6 8 9 7 5 6 6 7 7 6 6 5 4 4 5 5 6 6 6 7 6 6 5 6 7 8 8 8 9 9 9 9 9
6 4 6 7 7 4 6 8 6 8 9 9 9 9 11 9 9 8 6 6 6 6 6 7 7 6 6 6 7 6 7 6 5 5 6 8 8 8 8 9 9 9 9 10
4 5 4 4 3 4 6 7 5 6 5 7 5 9 8 4 4 5 7 8 8 9 9 9 8 7 7 8 7 7 7 7 5 6 8 8 7 8 8 9 9 9 10 10
5 7 5 4 5 4 6 5 4 4 6 8 9 9 3 5 9 10 10 10 11 11 10 9 9 9 8 8 7 7 7 6 5 7 8 8 8 8 9 9 9 10 10 10
8 7 5 2 1 4 9 5 5 5 5 7 7 6 7 8 6 5 8 10 11 10 10 9 8 8 7 6 6 6 6 6 6 7 8 8 8 9 9 9 10 10 9 10
6 8 5 4 4 6 10 4 6 5 6 6 7 6 4 3 3 4 8 10 11 11 10 9 9 7 6 7 7 5 6 6 7 8 9 8 8 9 9 10 11 10 9 10
5 5 6 4 5 6 10 4 4 4 6 7 8 9 8 8 3 8 8 10 11 9 8 8 7 6 6 7 5 5 7 7 8 9 8 8 8 8 10 11 11 10 9 10
3 3 4 5 5 8 9 3 6 3 9 7 11 11 12 11 11 6 5 9 10 10 9 8 7 7 8 7 5 6 7 8 9 8 7 8 8 8 10 10 9 10 10 10
4 3 4 5 3 7 4 7 9 11 5 5 11 12 14 14 10 7 7 9 10 10 9 9 8 8 7 6 6 7 9 9 7 7 7 8 8 8 8 9 10 9 9 9
6 8 6 8 8 8 5 9 8 4 6 7 10 12 15 13 11 10 9 11 10 11 10 8 9 8 7 6 7 9 9 7 6 6 8 8 9 8 8 8 9 9 8 7
4 4 4 5 9 9 8 8 8 8 10 10 10 11 12 13 13 12 11 11 10 10 10 8 8 8 9 7 8 9 8 6 5 7 8 8 8 9 9 7 7 7 8 8
7 5 3 6 9 10 9 7 7 7 7 7 7 9 13 14 13 12 12 12 11 10 9 8 9 10 10 8 8 8 7 5 6 7 8 8 8 8 9 9 7 8 8 9
3 5 5 8 8 5 7 9 7 6 6 6 6 6 6 10 12 10 11 10 10 10 8 8 9 10 9 8 8 8 6 6 6 7 7 6 7 7 7 8 9 10 10 13
Wind_Direction
120 102 226 228 209 211 198 194 233 234 92 93 144 162 186 180 178 177 173 177 180 183 187 182 180 178 170 178 180 176 169 170 145 118 114 101 14 337 344 346 351 355 357 355
43 259 244 229 188 186 198 193 184 83 59 87 116 187 197 194 217 204 195 194 197 192 188 194 195 197 198 199 202 201 197 188 175 145 136 141 145 289 290 316 334 347 348 342
213 249 243 156 166 182 235 199 183 156 95 59 61 331 232 256 263 218 212 208 211 203 201 204 204 208 210 212 209 207 205 200 194 166 116 75 38 357 336 327 325 329 333 331
246 258 238 217 223 179 258 226 147 121 105 18 31 312 289 249 264 228 220 214 217 218 211 210 211 213 216 219 211 204 199 200 201 179 175 181 197 256 263 277 292 305 314 317
274 246 228 226 232 167 142 78 86 88 98 50 26 25 296 330 253 239 228 225 224 222 218 217 216 217 219 214 202 198 194 204 205 195 193 198 230 244 272 288 293 298 304 305
255 259 207 190 49 109 121 76 61 54 63 16 338 24 291 262 236 246 235 229 228 226 222 221 217 207 210 197 188 182 185 208 214 215 217 217 242 260 278 284 286 289 294 295
336 332 257 125 96 64 86 87 35 4 10 274 280 259 258 259 239 231 241 243 240 234 222 216 205 196 193 186 184 176 182 219 235 239 246 243 246 250 254 265 268 275 281 282
6 315 267 192 172 168 161 133 151 205 235 278 309 256 258 258 259 247 240 242 246 234 218 209 201 192 189 186 182 181 196 226 244 249 260 262 253 247 253 257 257 262 264 269
184 273 292 245 180 138 138 146 145 124 115 6 293 289 300 262 263 245 232 226 226 220 198 190 186 182 181 180 182 188 200 232 253 257 265 271 267 259 261 266 264 264 265 272
169 254 299 319 83 56 129 138 103 113 135 270 300 283 254 255 245 235 219 214 216 193 179 176 173 171 171 179 187 198 216 239 257 264 265 269 270 268 267 272 274 272 272 273
136 176 310 359 61 174 111 97 104 111 145 154 244 270 227 224 225 219 220 215 204 194 188 183 179 171 171 183 218 244 254 260 269 270 271 275 276 276 277 274 273 274 276 278
128 120 294 291 293 278 184 161 149 150 197 174 184 264 258 232 235 218 219 213 200 190 184 179 178 175 204 242 258 262 266 265 266 270 274 275 277 283 284 281 280 279 278 279
134 104 31 348 344 355 17 131 134 124 119 155 176 262 294 272 220 210 208 202 190 183 175 173 187 220 243 257 265 269 269 267 272 276 277 281 283 282 281 281 283 284 281 282
120 114 157 200 231 264 298 241 154 140 157 199 220 248 281 249 222 215 204 192 184 186 187 197 225 243 253 260 265 270 273 269 273 276 276 278 279 278 280 283 284 283 281 281
119 169 214 236 246 249 256 264 210 195 196 193 229 229 248 232 218 215 201 184 181 197 210 218 227 239 251 262 267 268 271 273 274 276 276 274 279 281 282 283 284 284 282 281
124 173 189 279 269 268 264 269 238 211 198 213 243 258 251 225 172 194 198 190 202 216 222 227 231 237 244 250 258 266 270 271 271 271 274 279 284 285 285 285 286 288 287 285
150 146 148 257 303 352 298 258 228 223 208 186 213 240 206 181 197 209 207 202 210 218 223 226 228 231 238 244 247 255 263 272 272 271 276 281 281 284 286 290 292 290 289 286
146 138 149 189 44 253 250 254 221 222 236 212 229 242 206 209 211 223 203 200 213 219 222 227 228 231 237 239 245 254 266 269 270 273 277 279 279 283 288 291 290 289 288 286
144 137 132 143 191 271 294 263 176 181 260 219 216 223 174 106 60 298 222 204 211 214 215 220 220 220 230 240 244 253 267 269 273 274 277 279 279 285 290 291 290 289 289 289
83 107 123 141 168 229 251 257 163 115 282 233 193 191 165 129 169 255 231 204 216 219 215 217 216 215 232 242 234 241 259 267 269 272 276 279 279 281 285 286 287 286 285 286
59 82 145 171 208 255 254 204 131 168 245 224 191 189 172 184 206 226 212 198 207 211 214 210 205 214 229 233 218 239 255 260 263 271 277 280 279 279 280 281 283 287 289 290
192 176 188 150 185 260 243 148 181 218 237 208 198 193 192 211 222 231 221 211 207 210 212 203 204 225 234 223 213 238 252 256 265 273 278 281 284 285 288 286 290 290 290 293
198 192 189 189 218 245 235 217 239 220 229 226 207 206 200 210 222 223 222 219 215 211 211 203 205 225 239 227 211 233 249 256 266 275 280 285 291 291 288 288 293 298 295 291
264 169 165 246 270 269 272 263 258 230 230 235 216 203 192 205 217 217 219 218 216 215 212 203 201 220 238 234 223 230 246 252 258 272 282 289 294 299 300 295 289 290 293 295
240 192 205 256 275 299 305 289 280 274 256 249 229 205 200 205 215 213 215 217 214 214 208 197 204 219 233 235 236 239 240 238 253 269 280 289 291 293 301 301 291 285 279 273
236 198 202 241 251 233 273 294 313 298 276 250 224 221 213 206 218 215 219 219 213 210 201 202 212 222 233 233 240 243 235 224 240 266 279 287 295 299 301 305 309 292 279 283
Height
1508 1513 1515 1511 1509 1508 1511 1515 1518 1515 1511 1514 1517 1519 1518 1519 1519 1520 1520 1521 1522 1524 1525 1527 1528 1530 1531 1532 1533 1534 1534 1534 1535 1535 1535 1534 1533 1533 1531 1530 1528 1527 1525 1524
1512 1513 1504 1501 1503 1506 1510 1514 1516 1515 1513 1516 1521 1521 1519 1520 1520 1520 1521 1522 1523 1524 1525 1526 1528 1529 1530 1531 1532 1533 1533 1534 1534 1533 1533 1532 1531 1530 1529 1527 1525 1523 1521 1520
1511 1505 1499 1501 1503 1507 1509 1512 1514 1517 1517 1518 1521 1524 1522 1520 1520 1520 1521 1521 1522 1523 1524 1525 1527 1528 1529 1530 1531 1532 1532 1532 1532 1531 1531 1530 1528 1527 1526 1524 1522 1520 1518 1516
1505 1500 1499 1501 1503 1504 1512 1505 1508 1513 1523 1531 1528 1536 1524 1521 1520 1519 1519 1520 1520 1522 1523 1524 1525 1526 1528 1529 1530 1530 1530 1530 1530 1529 1528 1527 1525 1524 1522 1520 1518 1516 1514 1512
1504 1499 1500 1502 1501 1501 1508 1506 1510 1516 1525 1532 1532 1536 1530 1522 1520 1517 1516 1517 1518 1519 1520 1522 1523 1525 1526 1527 1528 1528 1528 1528 1527 1526 1525 1524 1522 1520 1518 1516 1514 1513 1511 1509
1500 1496 1497 1498 1498 1500 1505 1511 1517 1525 1531 1541 1537 1539 1534 1523 1517 1514 1512 1513 1514 1516 1518 1519 1521 1522 1524 1525 1525 1525 1525 1525 1524 1523 1522 1520 1518 1516 1514 1512 1510 1509 1507 1505
1505 1499 1495 1496 1502 1505 1507 1521 1538 1541 1549 1546 1538 1539 1533 1514 1511 1510 1510 1510 1511 1513 1515 1516 1518 1519 1520 1521 1522 1522 1522 1522 1521 1520 1518 1516 1514 1512 1510 1508 1506 1504 1502 1500
1514 1514 1498 1495 1499 1506 1510 1517 1538 1546 1549 1545 1538 1539 1523 1509 1507 1507 1507 1508 1509 1511 1512 1514 1515 1517 1518 1519 1519 1519 1519 1518 1518 1516 1514 1513 1511 1509 1507 1505 1503 1500 1498 1496
1514 1512 1495 1492 1493 1498 1510 1517 1520 1537 1542 1546 1541 1531 1516 1505 1505 1505 1505 1506 1507 1509 1510 1512 1513 1515 1516 1517 1517 1517 1516 1515 1514 1512 1511 1509 1507 1505 1503 1501 1499 1496 1494 1492
1504 1511 1499 1494 1493 1497 1501 1512 1527 1538 1547 1547 1538 1533 1526 1509 1505 1503 1503 1504 1505 1507 1509 1510 1512 1513 1514 1515 1515 1514 1513 1512 1510 1509 1507 1505 1503 1501 1499 1496 1494 1492 1489 1487
1502 1512 1507 1500 1499 1502 1506 1514 1525 1536 1537 1547 1548 1536 1507 1503 1500 1500 1500 1502 1504 1505 1507 1509 1511 1512 1512 1512 1512 1511 1510 1509 1507 1505 1503 1501 1499 1497 1495 1492 1490 1487 1485 1482
1504 1514 1518 1508 1498 1497 1498 1505 1518 1528 1534 1540 1542 1531 1496 1496 1495 1496 1498 1500 1502 1504 1506 1508 1509 1510 1510 1510 1509 1508 1507 1505 1504 1502 1500 1498 1495 1493 1490 1488 1485 1482 1480 1478
1503 1514 1525 1521 1515 1503 1501 1503 1511 1521 1532 1541 1540 1523 1494 1493 1493 1494 1496 1498 1500 1503 1505 1506 1507 1508 1508 1507 1506 1505 1504 1502 1500 1498 1496 1494 1491 1489 1486 1483 1481 1478 1475 1472
1497 1511 1520 1524 1518 1506 1504 1501 1509 1515 1527 1532 1525 1512 1497 1493 1492 1492 1494 1496 1498 1501 1503 1504 1505 1505 1505 1505 1503 1502 1500 1498 1496 1494 1492 1489 1487 1484 1481 1479 1476 1473 1470 1467
1495 1506 1507 1507 1502 1502 1502 1499 1501 1507 1508 1515 1508 1505 1494 1489 1489 1490 1492 1494 1497 1499 1500 1502 1502 1503 1502 1501 1500 1498 1496 1495 1493 1490 1488 1485 1482 1480 1477 1474 1471 1468 1465 1462
1495 1502 1503 1503 1498 1500 1500 1494 1493 1496 1498 1501 1499 1497 1485 1485 1487 1489 1490 1492 1494 1496 1498 1499 1499 1500 1499 1498 1497 1495 1493 1491 1489 1486 1484 1481 1478 1475 1472 1469 1466 1463 1459 1456
1498 1502 1509 1512 1503 1499 1504 1491 1488 1489 1488 1492 1496 1489 1483 1484 1485 1485 1487 1489 1491 1493 1495 1496 1496 1496 1495 1494 1493 1491 1489 1487 1485 1482 1480 1477 1474 1471 1468 1464 1461 1457 1453 1450
1497 1503 1511 1513 1506 1512 1500 1483 1483 1485 1483 1484 1483 1481 1481 1480 1482 1484 1485 1487 1488 1490 1492 1492 1493 1492 1492 1491 1489 1487 1486 1483 1481 1478 1476 1473 1470 1466 1463 1459 1456 1452 1448 1445
1490 1500 1512 1517 1515 1507 1492 1481 1481 1484 1483 1478 1479 1479 1480 1481 1482 1482 1482 1483 1485 1487 1488 1489 1489 1488 1488 1487 1485 1484 1482 1480 1477 1474 1472 1469 1465 1462 1458 1454 1451 1447 1443 1439
1492 1495 1507 1514 1512 1513 1492 1476 1476 1481 1486 1474 1475 1476 1478 1480 1487 1481 1478 1479 1481 1483 1484 1484 1485 1484 1483 1483 1481 1479 1478 1475 1473 1470 1467 1464 1461 1457 1453 1450 1446 1442 1438 1434
1496 1500 1505 1510 1510 1501 1478 1475 1477 1491 1487 1468 1469 1471 1473 1475 1475 1474 1474 1476 1477 1479 1480 1480 1480 1480 1480 1479 1477 1476 1474 1471 1469 1466 1463 1459 1456 1452 1449 1445 1441 1437 1433 1429
1495 1500 1504 1509 1508 1500 1472 1474 1478 1474 1465 1464 1464 1465 1467 1467 1469 1471 1471 1472 1473 1474 1475 1476 1476 1476 1476 1475 1473 1471 1469 1467 1465 1461 1458 1455 1452 1448 1444 1440 1437 1433 1429 1425
1490 1490 1492 1494 1489 1473 1469 1468 1465 1464 1463 1461 1461 1461 1462 1464 1465 1466 1467 1468 1469 1470 1471 1471 1471 1472 1471 1470 1469 1467 1465 1463 1460 1457 1454 1451 1447 1444 1440 1436 1432 1428 1424 1420
1481 1480 1483 1484 1475 1468 1465 1463 1461 1460 1458 1457 1457 1457 1458 1459 1460 1461 1463 1463 1464 1465 1466 1467 1467 1467 1467 1466 1464 1462 1461 1458 1456 1453 1450 1446 1443 1439 1436 1433 1429 1424 1420 1416
1477 1477 1480 1479 1471 1465 1462 1461 1459 1457 1455 1453 1453 1453 1453 1454 1455 1456 1457 1458 1459 1460 1461 1462 1462 1462 1462 1461 1460 1458 1456 1454 1451 1448 1445 1442 1438 1435 1432 1428 1425 1420 1416 1412
1475 1476 1477 1475 1466 1466 1463 1459 1456 1454 1451 1450 1449 1448 1449 1450 1451 1452 1453 1454 1455 1456 1457 1458 1458 1458 1458 1457 1455 1453 1452 1449 1447 1444 1441 1438 1434 1431 1428 1424 1421 1417 1413 1409